Regional Weather Roundup
Issued by NWS

Home | Current Version | Previous Version | Graphics & Text | Print | Product List | Glossary On
Versions: 1 2 3 4 5 6 7 8 9 10 11 12 13 14 15 16 17 18 19 20 21 22 23 24 25 26 27 28 29 30 31 32 33 34 35 36 37 38 39 40 41 42 43 44 45 46 47 48 49 50
000
ASUS43 KMKX 222200
RWRWI

WISCONSIN REGIONAL WEATHER ROUNDUP
NATIONAL WEATHER SERVICE MILWAUKEE/SULLIVAN WI
400 PM CST SAT NOV 22 2014

NOTE: "FAIR" INDICATES FEW OR NO CLOUDS BELOW 12,000 FEET WITH NO
SIGNIFICANT WEATHER AND/OR OBSTRUCTIONS TO VISIBILITY.

WIZ001-002-006>008-014>016-023>028-222300-
NORTHWEST WISCONSIN

CITY           SKY/WX    TMP DP  RH WIND       PRES   REMARKS
SUPERIOR ARPT  CLOUDY    37  32  81 S8        29.66R WCI  31
ASHLAND        CLOUDY    37  31  78 S7        29.69R WCI  32
HAYWARD        CLOUDY    35  31  85 S10       29.68S WCI  27
SIREN          CLOUDY    35  32  90 S8        29.67F FOG     WCI  28
CUMBERLAND     CLOUDY    32  32 100 S9        29.68S FOG     WCI  24
RICE LAKE      CLOUDY    35  32  90 S10       29.71R WCI  27
CHETEK         CLOUDY    35  33  94 S5        29.70S FOG     WCI  30
LADYSMITH      CLOUDY    35  34  94 S7        29.72S FOG     WCI  29
EAU CLAIRE     CLOUDY    36  34  93 S5        29.71S FOG     WCI  32
MENOMONIE      CLOUDY    37  35  94 S5        29.71R FOG     WCI  33
NEW RICHMOND   CLOUDY    34  34  99 S9        29.69S FOG     WCI  27
OSCEOLA        CLOUDY    35  35 100 S13       29.71S FOG     WCI  26
$$

WIZ003>005-009-010-017-018-222300-
NORTH CENTRAL WISCONSIN

CITY           SKY/WX    TMP DP  RH WIND       PRES   REMARKS
MANITOWISH WTR CLOUDY    32  32  99 S8        29.68S FOG     WCI  25
ARBOR VITAE    CLOUDY    37  34  90 SW6       29.69S FOG     WCI  32
WOODRUFF       CLOUDY    37  34  90 SW6       29.69S FOG     WCI  32
RHINELANDER    CLOUDY    33  31  92 SW8       29.70S FOG     WCI  26
EAGLE RIVER    CLOUDY    33  32  96 SW6       29.69S FOG     WCI  27
LAND O LAKES   CLOUDY    34  31  90 SW5       29.69S FOG     WCI  30
PHILLIPS       CLOUDY    33  32  96 SW7       29.69S WCI  27
TOMAHAWK       CLOUDY    34  32  92 CALM      29.71S FOG
MEDFORD        FOG       33  33  99 S5        29.71S VSB 1/4 WCI  29
MERRILL        FOG       35  35 100 SW5       29.72S VSB 3/4 WCI  31
$$

WIZ029-030-035-036-043>047-222300-
CENTRAL WISCONSIN

CITY           SKY/WX    TMP DP  RH WIND       PRES   REMARKS
WAUSAU         FOG       34  34 100 SE5       29.71F VSB<1/4 WCI  30
MOSINEE        FOG       34  34 100 SE3       29.74S VSB 1/8
MARSHFIELD     FOG       36  35  96 S3        29.72S VSB<1/4
STEVENS POINT  CLOUDY    34  34  98 S3        29.74F FOG
WAUPACA        CLOUDY    40  37  88 SW5       29.76S FOG
WAUTOMA        NOT AVBL
WISC RAPIDS    CLOUDY    38  34  85 S6        29.75F WCI  33
CAMP DOUGLAS   NOT AVBL
$$

WIZ011>013-019>022-031-037>040-048>050-222300-
NORTHEAST WISCONSIN

CITY           SKY/WX    TMP DP  RH WIND       PRES   REMARKS
ANTIGO         FOG       33  33 100 SW7       29.72S VSB 1/4 WCI  27
SHAWANO        CLOUDY    38  35  87 CALM      29.75F FOG
OCONTO         CLOUDY    37  36  94 SW6       29.76S WCI  33
STURGEON BAY   CLOUDY    37  34  87 SW7       29.76S WCI  32
GREEN BAY      CLOUDY    38  36  92 S5        29.77R FOG     WCI  34
MANITOWOC      NOT AVBL
APPLETON       FOG       37  37 100 SW7       29.76S VSB 1   WCI  32
CLINTONVILLE   CLOUDY    36  34  93 SW3       29.76S FOG
OSHKOSH        CLOUDY    40  38  93 S9        29.77S FOG     WCI  34
$$

WIZ032>034-041-042-053>061-222300-
SOUTHWEST WISCONSIN

CITY           SKY/WX    TMP DP  RH WIND       PRES   REMARKS
LA CROSSE      CLOUDY    40  37  89 S6        29.74S
SPARTA         CLOUDY    39  37  93 S6        29.75R FOG     WCI  35
VIROQUA        CLOUDY    38  38 100 S9        29.73F VSB<1/4 WCI  31
BOSCOBEL       CLOUDY    45  41  86 CALM      29.77F FOG
PRAIRIE DU CHI CLOUDY    44  41  88 CALM      29.75F
PLATTEVILLE    CLOUDY    46  45  97 CALM      29.78F
$$

WIZ056-057-062-063-064-067-068-222300-
SOUTH CENTRAL WISCONSIN

CITY           SKY/WX    TMP DP  RH WIND       PRES   REMARKS
REEDSBURG      CLOUDY    40  39  97 SW7       29.75F FOG
BARABOO/DELLS  CLOUDY    40  39  95 SW9       29.76F FOG     WCI  34
LONE ROCK      NOT AVBL
MINERAL POINT  CLOUDY    45  45 100 S8        29.76F FOG
MADISON        CLOUDY    44  41  89 S6        29.79S FOG
MIDDLETON      CLOUDY    46  44  94 SW6       29.79F
WATERTOWN      CLOUDY    43  43 100 SW7       29.80R FOG
MONROE         FOG       45  45 100 SW8       29.80S VSB 1/2
JANESVILLE     CLOUDY    48  46  93 SW9       29.81S FOG
$$

WIZ051-052-058>065-066-070>072-222300-
SOUTHEAST WISCONSIN

CITY           SKY/WX    TMP DP  RH WIND       PRES   REMARKS
MILWAUKEE      CLOUDY    46  43  89 SW12      29.82R FOG
WAUKESHA       NOT AVBL
MILWAUKEE/TIMM CLOUDY    46  43  87 SW10      29.81S FOG
RACINE         CLOUDY    46  42  86 S9        29.84S FOG
BURLINGTON     CLOUDY    44  43  96 S12       29.82S FOG
KENOSHA        CLOUDY    47  44  90 SW10      29.84R FOG
FOND DU LAC    FOG       41  39  93 SW9       29.78S VSB 1
SHEBOYGAN      CLOUDY    41  39  93 SW8       29.79S FOG
WEST BEND      DRIZZLE   43  41  93 SW7       29.79S
JUNEAU         FOG       40  39  99 SW7       29.80S VSB 1/4 WCI  35
$$

LSZ147-162-222300-
LAKE SUPERIOR

STATION/POSITION TIME  TEMP    WIND        PRES    WAVE
                       AIR SEA DIR/SP/G            HT/PER
                 (UTC) (F)     (DEG/KT/KT) (MB)    (FT/S)
DEVILS ISLAND    2100   38     240/  7/  9 1005.0F
PORT WING        2140   38     180/  7/ 11 1004.7S
SAXON HARBOR     2100   39     200/  7/ 10 1005.4R
$$

LMZ867-665-643>646-222300-
LAKE MICHIGAN

STATION/POSITION TIME  TEMP    WIND        PRES    WAVE
                       AIR SEA DIR/SP/G            HT/PER
                 (UTC) (F)     (DEG/KT/KT) (MB)    (FT/S)
CHAMBERS ISLAND  2100   37     190/  7/ 12 1007.8R
N MID LAKE BUOY  2050   40 42  240/ 17/ 21 1007.8R   7/ 8
NORTHPORT PIER   2100   37     180/  3/ 12 1007.8R
SISTER BAY       2113          210/ 13/ 16   N/A
KEWAUNEE LAKESHO 2100   41     220/  5/  8 1007.5S
SHEBOYGAN LAKESH 2100   41 36  180/ 12/ 13 1009.6F
PORT WASHINGTON  2100   41     200/  5/  6 1010.2
ATWATER BUOY     2100   45      CALM  /  4 1010.7F
MILWAUKEE LAKESH 2100   44     210/ 10/ 11   N/A
S MID LAKE BUOY  2050   44 42  200/ 17/ 21 1011.4F   4/ 6
KENOSHA   LAKESH 2100   46     200/  9/ 14 1010.5F
$$

TC  - TEMPERATURE IN CELSIUS
VSB - VISIBILITY IN STATUTE MILES
WCI - WIND CHILL INDEX
HX  - HEAT INDEX



USA.gov is the U.S. government's official web portal to all federal, state and local government web resources and services.